Other Surface Observations
Issued by NWS

Home | Current Version | Previous Version | Text Only | Print | Product List | Glossary On
Versions: 1 2 3 4 5 6 7 8 9 10 11 12 13 14 15 16 17 18 19 20 21 22 23 24 25 26 27 28 29 30 31 32 33 34 35 36 37 38 39 40 41 42 43 44 45 46 47 48 49 50
820
SXPA56 KWBC 221649
OSOHW
:SHEF ENCODED 6-MINUTE NOS MET DATA
:NATIONAL WATER LEVEL OBSERVATION NETWORK (NWLON)
:TA(AIR TEMP DEG F)  SLP(SEA LEVEL PRESSURE INCHES)
:UD(WIND DIRECTION WHOLE DEGREES) US (WIND SPEED MPH)
:TW(WATER TEMP DEG F) UG(WIND GUSTS MPH) WC(CONDUCTIVITY uMHOS/CM)
:-9999 (MISSING VALUES)
:PROVIDED BY DOC/NOAA/NOS/CO-OPS, (301) 713-2540
:corms@noaa.gov
.E NWWH1 20180722 Z DH1612/TAIRG/DIN06/-9999/-9999/-9999/   76
.E NWWH1 20180722 Z DH1612/PLIRG/DIN06/-9999/-9999/-9999/30.00
.E NWWH1 20180722 Z DH1612/USIRG/DIN06/-9999/-9999/-9999/    8
.E NWWH1 20180722 Z DH1612/UDIRG/DIN06/-9999/-9999/-9999/   33
.E NWWH1 20180722 Z DH1612/UGIRG/DIN06/-9999/-9999/-9999/   11
.E NWWH1 20180722 Z DH1612/TWIRG/DIN06/   82/   82/   82/   82
.E OOUH1 20180722 Z DH1624/TAIRG/DIN06/   77/   77
.E OOUH1 20180722 Z DH1624/PLIRG/DIN06/29.95/29.95
.E OOUH1 20180722 Z DH1624/USIRG/DIN06/    3/    2
.E OOUH1 20180722 Z DH1624/UDIRG/DIN06/  160/  146
.E OOUH1 20180722 Z DH1624/UGIRG/DIN06/    7/    4
.E OOUH1 20180722 Z DH1624/TWIRG/DIN06/   80/   80
.E MOKH1 20180722 Z DH1624/TAIRG/DIN06/-9999/   76
.E MOKH1 20180722 Z DH1624/PLIRG/DIN06/29.98/29.98
.E MOKH1 20180722 Z DH1624/USIRG/DIN06/-9999/    5
.E MOKH1 20180722 Z DH1624/UDIRG/DIN06/-9999/   70
.E MOKH1 20180722 Z DH1624/UGIRG/DIN06/-9999/   11
.E MOKH1 20180722 Z DH1624/TWIRG/DIN06/   80/   80
.E KLIH1 20180722 Z DH1624/TAIRG/DIN06/   76/   76
.E KLIH1 20180722 Z DH1624/PLIRG/DIN06/29.97/29.97
.E KLIH1 20180722 Z DH1624/USIRG/DIN06/   10/   14
.E KLIH1 20180722 Z DH1624/UDIRG/DIN06/   12/   22
.E KLIH1 20180722 Z DH1624/UGIRG/DIN06/   12/   17
.E KLIH1 20180722 Z DH1624/TWIRG/DIN06/   81/   81
.E KWHH1 20180722 Z DH1624/TAIRG/DIN06/   77/   77
.E KWHH1 20180722 Z DH1624/PLIRG/DIN06/29.93/29.93
.E KWHH1 20180722 Z DH1624/USIRG/DIN06/    4/    3
.E KWHH1 20180722 Z DH1624/UDIRG/DIN06/   31/   25
.E KWHH1 20180722 Z DH1624/UGIRG/DIN06/    6/    6
.E KWHH1 20180722 Z DH1624/TWIRG/DIN06/   82/   82
.E ILOH1 20180722 Z DH1624/TAIRG/DIN06/   73/   72
.E ILOH1 20180722 Z DH1624/PLIRG/DIN06/29.95/29.95
.E ILOH1 20180722 Z DH1624/USIRG/DIN06/    5/    7
.E ILOH1 20180722 Z DH1624/UDIRG/DIN06/  189/  213
.E ILOH1 20180722 Z DH1624/UGIRG/DIN06/    5/    8
.E ILOH1 20180722 Z DH1624/TWIRG/DIN06/   80/   80
.E SNDP5 20180722 Z DH1624/TAIRG/DIN06/   77/   77
.E SNDP5 20180722 Z DH1624/PLIRG/DIN06/30.09/30.09
.E SNDP5 20180722 Z DH1624/TWIRG/DIN06/   78/   78
.E APRP7 20180722 Z DH1624/TAIRG/DIN06/   82/   82
.E APRP7 20180722 Z DH1624/PLIRG/DIN06/29.74/29.74
.E APRP7 20180722 Z DH1624/USIRG/DIN06/    6/    4
.E APRP7 20180722 Z DH1624/UDIRG/DIN06/  220/  226
.E APRP7 20180722 Z DH1624/UGIRG/DIN06/   11/   11
.E APRP7 20180722 Z DH1624/TWIRG/DIN06/   85/   85
.A PGBP7 20180722 Z DH1630/TAIRG -9999/UGIRG     4/PLIRG 29.75/UDIRG   272/USIRG     2/TWIRG -9999/WCIRG -9999
.E NSTP6 20180722 Z DH1624/TAIRG/DIN06/   76/   76
.E NSTP6 20180722 Z DH1624/PLIRG/DIN06/29.88/29.88
.E NSTP6 20180722 Z DH1624/USIRG/DIN06/    2/    3
.E NSTP6 20180722 Z DH1624/UDIRG/DIN06/  194/  207
.E NSTP6 20180722 Z DH1624/UGIRG/DIN06/    4/    4
.E NSTP6 20180722 Z DH1624/TWIRG/DIN06/   83/   83
.A KWJP8 20180722 Z DH1630/TAIRG -9999/UGIRG -9999/PLIRG 29.78/UDIRG -9999/USIRG -9999/TWIRG    85/WCIRG -9999
.E WAKP8 20180722 Z DH1624/TAIRG/DIN06/   79/   79
.E WAKP8 20180722 Z DH1624/PLIRG/DIN06/29.86/29.86
.E WAKP8 20180722 Z DH1624/USIRG/DIN06/   10/   11
.E WAKP8 20180722 Z DH1624/UDIRG/DIN06/  105/  100
.E WAKP8 20180722 Z DH1624/UGIRG/DIN06/   15/   14
.E WAKP8 20180722 Z DH1624/TWIRG/DIN06/   87/   87



USA.gov is the U.S. government's official web portal to all federal, state and local government web resources and services.